Regional Weather Roundup
Issued by NWS

Home | Current Version | Previous Version | Graphics & Text | Print | Product List | Glossary On
Versions: 1 2 3 4 5 6 7 8 9 10 11 12 13 14 15 16 17 18 19 20 21 22 23 24 25 26 27 28 29 30 31 32 33 34 35 36 37 38 39 40 41 42 43 44 45 46 47 48 49 50
262
ASUS43 KOAX 250902
RWRNE

WEATHER ROUNDUP FOR NEBRASKA
NATIONAL WEATHER SERVICE OMAHA NE
400 AM CDT THU AUG 25 2016

NOTES: SATELLITE DATA IS BEING USED TO AUGMENT CLOUD COVER ABOVE
       12000 FEET.
       "FAIR" INDICATES FEW OR NO CLOUDS BELOW 12,000 FEET WITH NO
       SIGNIFICANT WEATHER AND/OR OBSTRUCTIONS TO VISIBILITY.

  * THESE STATIONS DO NOT REPORT WEATHER SUCH AS RAIN...SNOW OR FOG.

NEZ001>004-019>022-054>056-251000-
NEBRASKA PANHANDLE

CITY           SKY/WX    TMP DP  RH WIND       PRES   REMARKS
SCOTTSBLUFF    CLEAR     50  47  89 CALM      30.22S
ALLIANCE       CLEAR     49  47  93 N6        30.22R
CHADRON        CLOUDY    55  47  74 NE8       30.23S
KIMBALL        CLEAR     50  42  74 S7        30.24S
SIDNEY         CLEAR     45  39  79 W6        30.23S
$$

NEZ057>060-069>072-079>082-251000-
SOUTHWEST NEBRASKA

CITY           SKY/WX    TMP DP  RH WIND       PRES   REMARKS
NORTH PLATTE   MOCLDY    53  49  86 CALM      30.17S
IMPERIAL       MOCLDY    56  47  71 CALM      30.18F
LEXINGTON      CLOUDY    57  54  89 NW3       30.15S
MCCOOK         CLOUDY    57  52  83 SW5       30.16S
OGALLALA       MOCLDY    47  43  83 CALM      30.19R
$$

NEZ005>010-023>029-035>040-094-251000-
NORTH CENTRAL NEBRASKA

CITY           SKY/WX    TMP DP  RH WIND       PRES   REMARKS
VALENTINE      CLOUDY    60  45  57 N13G21    30.19R
AINSWORTH      CLOUDY    60  55  84 NW6       30.18R
BROKEN BOW     CLOUDY    54  53  97 CALM      30.15F
O`NEILL        PTCLDY    60  52  74 NW8       30.13F
ORD            CLOUDY    57  54  89 CALM      30.12F
THEDFORD       CLOUDY    53  51  92 W3        30.19S
$$

NEZ041-046>049-061>064-073>077-083>087-251000-
SOUTH CENTRAL NEBRASKA

CITY           SKY/WX    TMP DP  RH WIND       PRES   REMARKS
GRAND ISLAND   PTCLDY    59  55  87 NW3       30.13R
AURORA         CLOUDY    59  58  96 N3        30.11S
HASTINGS       PTCLDY    57  54  89 NW3       30.14R
HEBRON         CLOUDY    60  56  88 CALM      30.10R
HOLDREGE       CLOUDY    57  54  89 NW5       30.15S
KEARNEY *      CLOUDY    59  54  82 NW6       30.14S
YORK           CLOUDY    59  55  88 N7        30.11S
$$

NEZ011>018-030>034-042>045-251000-
NORTHEAST NEBRASKA

CITY           SKY/WX    TMP DP  RH WIND       PRES   REMARKS
NORFOLK        CLOUDY    57  55  93 SW3       30.11S
ALBION         CLOUDY    58  54  87 NW6       30.12S
BLAIR          CLEAR     62  57  84 N8        30.09S
FREMONT        PTCLDY    56  55  95 CALM      30.10S
TEKAMAH        CLEAR     54  52  93 CALM      30.09R
WAYNE          CLOUDY    56  55  98 CALM      30.11S
$$

NEZ050>053-065>068-078-088>093-251000-
SOUTHEAST NEBRASKA

CITY           SKY/WX    TMP DP  RH WIND       PRES   REMARKS
LINCOLN        CLOUDY    57  55  93 CALM      30.10R
OMAHA EPPLEY   PTCLDY    62  58  86 N6        30.09R
BEATRICE       PTCLDY    57  56  97 N5        30.09S
FALLS CITY     CLOUDY    66  65  96 N3        30.05S
NEBRASKA CITY  PTCLDY    61  61 100 N5        30.09R
PLATTSMOUTH    MOCLDY    61  60  97 CALM      30.09S
$$

NEZ044-045-051>053-067-251000-
OMAHA AREA

CITY           SKY/WX    TMP DP  RH WIND       PRES   REMARKS
OMAHA EPPLEY   PTCLDY    62  58  86 N6        30.09R
BLAIR          CLEAR     62  57  84 N8        30.09S
FREMONT        PTCLDY    56  55  95 CALM      30.10S
MILLARD        CLOUDY    61  58  89 CALM      30.09R
OFFUTT AFB     CLEAR     60  60 100 CALM      30.08R
PLATTSMOUTH    MOCLDY    61  60  97 CALM      30.09S
WAHOO          FAIR      57  55  92 NW6       30.09S
$$




USA.gov is the U.S. government's official web portal to all federal, state and local government web resources and services.